Powrót do katalogu

STARLINK-4612

AktywnyŁącznośćVLEO
NORAD 53750·PAYLOAD·🇺🇸 United States

Wystrzelony Sep 5, 2022 z Cape Canaveral Space Force Station

Loading…

Następne Przeloty (najbliższe 24 godziny)

TLE

ŚwieżeSource: CelesTrak SupGP

Epoka: Sep 14, 2026, 22:02 UTC

1 53750C 22107BC  26257.91854167 -.00008907  00000+0 -26320-3 0  2573
2 53750  53.1570 119.5030 0001250  88.0185  47.3060 15.34388675    11

Śledź STARLINK-4612 w czasie rzeczywistym z AllMySat

Download on the App Store